This is the latest recevied weather packets stored in our database for station/object KB0BS-13. If no packets are shown the sender has not sent any weather packets the latest 1 day(s).
| Time | Temp. | Humidity | Pressure | Rain* | Wind** | Luminosity | Snow |
|---|---|---|---|---|---|---|---|
| 1778075723 | 2.78° C | 75% | 1012.9 hPa | 0 mm | - | 179 W/m² | - |
| 1778074812 | 2.78° C | 76% | 1012.9 hPa | 0 mm | - | 145 W/m² | - |
| 1778074206 | 2.78° C | 77% | 1012.8 hPa | 0 mm | - | 127 W/m² | - |
| 1778072994 | 2.22° C | 76% | 1012.5 hPa | 0 mm | - | 115 W/m² | - |
| 1778069666 | 1.11° C | 80% | 1012.1 hPa | 0 mm | - | 62 W/m² | - |
| 1778069363 | 1.11° C | 82% | 1012 hPa | 0 mm | - | 55 W/m² | - |
| 1778068154 | 1.11° C | 81% | 1011.8 hPa | 0 mm | - | 45 W/m² | - |
| 1778067851 | 1.11° C | 82% | 1011.9 hPa | 0 mm | - | 40 W/m² | - |
| 1778067247 | 0.56° C | 82% | 1011.8 hPa | 0 mm | - | 35 W/m² | - |
| 1778066338 | 0.56° C | 84% | 1011.5 hPa | 0 mm | - | 28 W/m² | - |
| 1778066036 | 0.56° C | 83% | 1011.7 hPa | 0 mm | - | 26 W/m² | - |
| 1778065733 | 0.56° C | 83% | 1011.4 hPa | 0 mm | - | 23 W/m² | - |
| 1778065430 | 0.56° C | 83% | 1011.6 hPa | 0 mm | - | 19 W/m² | - |
| 1778065127 | 0° C | 84% | 1011.4 hPa | 0 mm | - | 17 W/m² | - |
| 1778064521 | 0° C | 84% | 1011.4 hPa | 0 mm | - | 12 W/m² | - |
| 1778063916 | 0° C | 85% | 1011.4 hPa | 0 mm | - | 7 W/m² | - |
| 1778062401 | -0.56° C | 87% | 1011.3 hPa | 0 mm | - | 1 W/m² | - |
| 1778062100 | -0.56° C | 87% | 1011.3 hPa | 0 mm | - | 1 W/m² | - |
| 1778061798 | -0.56° C | 87% | 1011.4 hPa | 0 mm | - | 0 W/m² | - |
| 1778061496 | -0.56° C | 87% | 1011.4 hPa | 0 mm | - | 0 W/m² | - |
| 1778060588 | -0.56° C | 87% | 1011.4 hPa | 0 mm | - | 0 W/m² | - |
| 1778059378 | -0.56° C | 87% | 1011.5 hPa | 0 mm | - | 0 W/m² | - |
| 1778059075 | -0.56° C | 87% | 1011.5 hPa | 0 mm | - | 0 W/m² | - |
| 1778058167 | -0.56° C | 86% | 1011.6 hPa | 0 mm | - | 0 W/m² | - |
| 1778057864 | -0.56° C | 86% | 1011.4 hPa | 0 mm | - | 0 W/m² | - |
* Rain latest hour (hover to see other rain measurements)
** Current wind speed in m/s (hover to see current wind gust speed)